Miscellaneous Local Product
Issued by NWS Hastings, NE

Home | Current Version | Previous Version | Text Only | Print | Product List | Glossary Off
Versions: 1 2 3 4 5 6 7 8 9 10 11 12 13 14 15 16 17 18 19 20 21 22 23 24 25 26 27 28 29 30 31 32 33 34 35 36 37 38 39 40 41 42 43 44 45 46 47 48 49 50

314
AXUS43 KGID 230602
MISGRI

GID CWA HOURLY WEATHER ROUNDUP
NATIONAL WEATHER SERVICE HASTINGS NE
100 AM CDT WED AUG 23 2017

NOTE: "FAIR" INDICATES FEW OR NO CLOUDS BELOW 12,000 FEET WITH NO
SIGNIFICANT WEATHER AND/OR OBSTRUCTIONS TO VISIBILITY.

...SOUTH CENTRAL NEBRASKA...

CITY           SKY/WX    TMP DP  RH WIND       PRES   REMARKS
GRAND ISLAND   CLEAR     59  55  87 S6        30.20S
HASTINGS       CLEAR     60  54  80 CALM      30.22R
KEARNEY        CLEAR     59  55  87 S6        30.21S
ORD            CLEAR     58  54  86 CALM      30.17F
YORK           CLEAR     57  55  94 CALM      30.20S
AURORA         CLEAR     57  55  91 SE3       30.20S
LEXINGTON      CLEAR     59  54  83 SE5       30.21S
HOLDREGE       PTCLDY    59  53  78 S6        30.21F
HEBRON         CLEAR     56  53  90 CALM      30.20S

...NEBRASKA PANHANDLE...

CITY           SKY/WX    TMP DP  RH WIND       PRES   REMARKS
CHADRON        CLEAR     71  49  45 S23G32    30.07F
ALLIANCE       CLEAR     62  50  64 S15       30.16F
SCOTTSBLUFF    CLEAR     63  52  67 SE14      30.15F
SIDNEY         CLEAR     65  54  67 S16       30.20F

...WESTERN AND NORTH CENTRAL NEBRASKA...

CITY           SKY/WX    TMP DP  RH WIND       PRES   REMARKS
VALENTINE      CLEAR     62  50  64 CALM      30.14F
AINSWORTH      CLEAR     59  53  79 S7        30.16F
ONEILL         CLEAR     59  54  83 S5        30.17F
BROKEN BOW     CLEAR     57  53  86 CALM      30.19F
IMPERIAL       CLEAR     61  51  70 SE12      30.21S
NORTH PLATTE   CLEAR     57  55  93 E7        30.20F
MCCOOK         CLEAR     61  54  77 SE7       30.21S

...EASTERN NEBRASKA...

CITY           SKY/WX    TMP DP  RH WIND       PRES   REMARKS
NORFOLK        CLEAR     56  54  93 CALM      30.17F
SO SIOUX CITY  CLEAR     57  55  93 CALM      30.16S
TEKAMAH        CLEAR     56  53  90 E3        30.16S
COLUMBUS       CLEAR     53  52  96 CALM      30.19S
ALBION         CLEAR     56  55  95 CALM      30.19S
OMAHA EPPLEY   CLEAR     61  54  77 CALM      30.18R
OFFUTT AFB     CLEAR     54  53  96 CALM      30.17R
MILLARD        CLEAR     59  56  92 CALM      30.18S
LINCOLN        CLEAR     58  54  86 CALM      30.19S
NEBRASKA CITY  CLEAR     61  52  73 N5        30.18S
BEATRICE       CLEAR     58  55  90 CALM      30.19S
FALLS CITY     CLEAR     56  54  93 NW3       30.17R

...NORTHERN KANSAS...

CITY           SKY/WX    TMP DP  RH WIND       PRES   REMARKS
GOODLAND       CLEAR     58  50  75 S9        30.24S
HILL CITY      CLEAR     59  53  80 E3        30.23S
NORTON         CLEAR     57  48  72 E6        30.22S
PHILLIPSBURG   CLEAR     57  55  94 CALM      30.22S
SMITH CENTER   PTCLDY    57  52  82 E7        30.21F
HAYS           CLEAR     60  52  74 E8        30.22S
RUSSELL        CLEAR     60  51  72 E7        30.20S
CONCORDIA      CLEAR     58  54  86 SE3       30.20R
SALINA         CLEAR     68  51  54 NE7       30.19R
TOPEKA         CLEAR     60  57  89 CALM      30.17R



USA.gov is the U.S. government's official web portal to all federal, state and local government web resources and services.